Flag for Macedonia, Republic of Weather past 2 weeks in Kumanovo, Macedonia, Republic of

Now
46 °F

Passing clouds.


Feels Like: 45 °F
Forecast: 40 / 55 °F
Wind: 3 mph from North

Location: Skopje-Petrovec

Current Time: Mar 31, 2015 at 7:24:01 AM

Latest Report: Mar 31, 2015 at 7:00 AM


Visibility: N/A

Pressure: 29.92 "Hg

Humidity: 71%

Dew point: 37 °F

Location of KumanovoLocation

Historic Weather in Kumanovo — Graph

°F

Kumanovo temperature yesterday

Maximum temperature yesterday: 54 °F (at 12:00 PM)
Minimum temperature yesterday: 30 °F (at 6:30 AM)
Average temperature yesterday: 44 °F

Past Weeks' High & Low Weather Summary

 TemperatureHumidityPressure
High61 °F (Mar 16, 2:30 PM)100% (Mar 19, 3:30 AM)30.54 "Hg (Mar 19, 3:30 AM)
Low19 °F (Mar 21, 6:00 AM)12% (Mar 21, 3:00 PM)29.59 "Hg (Mar 27, 4:00 PM)
Average45 °F73%30.06 "Hg
* Reported Mar 16 5:00 AM — Mar 31 6:30 AM, Kumanovo, Weather by CustomWeather, © 2015

Note: Actual official high and low records may vary slightly from our data, if they occured in-between our weather recording intervals... More about our weather records

Advertising

Kumanovo weather history for previous 24 hours

 ConditionsComfort  
Time TempWeatherWind HumidityBarometerVisibility
6:30 AM
Tue, Mar 31
46 °FPassing clouds.5 mph62%29.92 "HgN/A
6:00 AM46 °FPassing clouds.6 mph71%29.89 "HgN/A
5:30 AM46 °FPassing clouds.8 mph71%29.89 "HgN/A
5:00 AM48 °FPassing clouds.9 mph62%29.86 "HgN/A
4:30 AM48 °FPassing clouds.12 mph66%29.86 "HgN/A
4:00 AM46 °FPassing clouds.3 mph93%29.86 "Hg5 mi
3:30 AM45 °FPassing clouds.2 mph93%29.83 "Hg4 mi
3:00 AM45 °FPassing clouds.No wind93%29.80 "Hg4 mi
2:30 AM45 °FPassing clouds.No wind93%29.80 "Hg4 mi
2:00 AM45 °FPassing clouds.No wind93%29.80 "Hg4 mi
1:30 AM45 °FPassing clouds.2 mph93%29.77 "Hg4 mi
1:00 AM45 °FPassing clouds.No wind93%29.77 "Hg5 mi
12:30 AM45 °FPassing clouds.2 mph93%29.77 "HgN/A
12:00 AM46 °FPassing clouds.2 mph93%29.77 "HgN/A
11:30 PM
Mon, Mar 30
46 °FPartly cloudy.2 mph93%29.77 "HgN/A
11:00 PM46 °FMostly cloudy.2 mph93%29.77 "HgN/A
10:30 PM46 °FPartly cloudy.2 mph93%29.74 "HgN/A
10:00 PM46 °FPartly cloudy.No wind93%29.74 "HgN/A
9:30 PM46 °FPartly cloudy.No wind93%29.74 "HgN/A
9:00 PM46 °FPartly cloudy.2 mph93%29.74 "HgN/A
8:30 PM46 °FMostly cloudy.No wind93%29.74 "HgN/A
8:00 PM48 °FMostly cloudy.2 mph87%29.74 "HgN/A
7:30 PM48 °FMore clouds than sun.No wind87%29.71 "HgN/A
7:00 PM50 °FLight rain. More clouds than sun.2 mph82%29.71 "HgN/A
6:30 PM50 °FDrizzle. More clouds than sun.3 mph82%29.74 "HgN/A
6:00 PM52 °FDrizzle. More clouds than sun.No wind72%29.71 "HgN/A
5:30 PM52 °FLight rain. More clouds than sun.No wind72%29.71 "HgN/A
5:00 PM52 °FLight rain. More clouds than sun.No wind72%29.71 "HgN/A
4:30 PM52 °FDrizzle. More clouds than sun.No wind62%29.74 "HgN/A
4:00 PM52 °FLight rain. More clouds than sun.No wind62%29.74 "HgN/A
3:30 PM54 °FLight rain. More clouds than sun.No wind58%29.74 "HgN/A
3:00 PM54 °FMore clouds than sun.No wind58%29.74 "HgN/A
2:30 PM54 °FMore clouds than sun.2 mph58%29.74 "HgN/A
2:00 PM52 °FMostly cloudy.3 mph62%29.74 "HgN/A
1:30 PM54 °FMostly cloudy.6 mph54%29.77 "HgN/A
1:00 PM54 °FBroken clouds.2 mph54%29.77 "HgN/A
12:30 PM54 °FBroken clouds.No wind54%29.77 "HgN/A
12:00 PM54 °FScattered clouds.No wind58%29.77 "HgN/A
11:30 AM52 °FScattered clouds.2 mph62%29.80 "HgN/A
11:00 AM50 °FScattered clouds.No wind62%29.80 "HgN/A
10:30 AM46 °FScattered clouds.No wind76%29.80 "HgN/A
10:00 AM45 °FSunny.No wind76%29.83 "Hg10 mi
9:30 AM43 °FSunny.No wind76%29.83 "Hg10 mi
9:00 AM39 °FSunny.No wind81%29.83 "Hg10 mi
8:30 AM37 °FSunny.No wind87%29.83 "Hg10 mi
8:00 AM36 °FClear.No wind87%29.86 "Hg5 mi
7:30 AM34 °FSunny.1 mph93%29.86 "Hg10 mi
7:00 AM32 °FClear.5 mph93%29.86 "Hg10 mi
Weather by CustomWeather, © 2015

See weather overviewHow to use our weather pages